Year,Month,Day,Hour,Minute,Value (Times are PST for temperature in C)
2007,05,29,00,00,9.50
2007,05,29,00,01,9.50
2007,05,29,00,02,9.50
2007,05,29,00,03,9.50
2007,05,29,00,04,9.50
2007,05,29,00,05,9.50
2007,05,29,00,06,9.50
2007,05,29,00,07,9.50
2007,05,29,00,08,9.50
2007,05,29,00,09,9.50
2007,05,29,00,10,9.50
2007,05,29,00,11,9.50
2007,05,29,00,12,9.50
2007,05,29,00,13,9.50
2007,05,29,00,14,9.50
2007,05,29,00,15,9.50
2007,05,29,00,16,9.50
2007,05,29,00,17,9.50
2007,05,29,00,18,9.50
2007,05,29,00,19,9.50
2007,05,29,00,20,9.50
2007,05,29,00,21,9.50
2007,05,29,00,22,9.50
2007,05,29,00,23,9.50
2007,05,29,00,24,9.50
2007,05,29,00,25,9.50
2007,05,29,00,26,9.50
2007,05,29,00,27,9.50
2007,05,29,00,28,9.50
2007,05,29,00,29,9.50
2007,05,29,00,30,9.50
2007,05,29,00,31,9.50
2007,05,29,00,32,9.60
2007,05,29,00,33,9.60
2007,05,29,00,34,9.60
2007,05,29,00,35,9.60
2007,05,29,00,36,9.60
2007,05,29,00,37,9.70
2007,05,29,00,38,9.70
2007,05,29,00,39,9.70
2007,05,29,00,40,9.80
2007,05,29,00,41,9.80
2007,05,29,00,42,9.80
2007,05,29,00,43,9.80
2007,05,29,00,44,9.80
2007,05,29,00,45,9.80
2007,05,29,00,46,9.90
2007,05,29,00,47,9.90
2007,05,29,00,48,9.90
2007,05,29,00,49,9.90
2007,05,29,00,50,9.90
2007,05,29,00,51,9.90
2007,05,29,00,52,9.90
2007,05,29,00,53,9.90
2007,05,29,00,54,9.90
2007,05,29,00,55,9.90
2007,05,29,00,56,9.90
2007,05,29,00,57,9.90
2007,05,29,00,58,9.90
2007,05,29,00,59,9.80
2007,05,29,01,00,9.70
2007,05,29,01,01,9.60
2007,05,29,01,02,9.50
2007,05,29,01,03,9.40
2007,05,29,01,04,9.40
2007,05,29,01,05,9.30
2007,05,29,01,06,9.30
2007,05,29,01,07,9.30
2007,05,29,01,08,9.30
2007,05,29,01,09,9.30
2007,05,29,01,10,9.30
2007,05,29,01,11,9.30
2007,05,29,01,12,9.20
2007,05,29,01,13,9.20
2007,05,29,01,14,9.20
2007,05,29,01,15,9.20
2007,05,29,01,16,9.20
2007,05,29,01,17,9.20
2007,05,29,01,18,9.20
2007,05,29,01,19,9.20
2007,05,29,01,20,9.20
2007,05,29,01,21,9.20
2007,05,29,01,22,9.20
2007,05,29,01,23,9.20
2007,05,29,01,24,9.20
2007,05,29,01,25,9.10
2007,05,29,01,26,9.10
2007,05,29,01,27,9.10
2007,05,29,01,28,9.10
2007,05,29,01,29,9.10
2007,05,29,01,30,9.00
2007,05,29,01,31,9.00
2007,05,29,01,32,8.90
2007,05,29,01,33,8.90
2007,05,29,01,34,8.80
2007,05,29,01,35,8.70
2007,05,29,01,36,8.70
2007,05,29,01,37,8.70
2007,05,29,01,38,8.70
2007,05,29,01,39,8.70
2007,05,29,01,40,8.70
2007,05,29,01,41,8.70
2007,05,29,01,42,8.70
2007,05,29,01,43,8.70
2007,05,29,01,44,8.70
2007,05,29,01,45,8.70
2007,05,29,01,46,8.70
2007,05,29,01,47,8.70
2007,05,29,01,48,8.70
2007,05,29,01,49,8.70
2007,05,29,01,50,8.70
2007,05,29,01,51,8.70
2007,05,29,01,52,8.70
2007,05,29,01,53,8.70
2007,05,29,01,54,8.60
2007,05,29,01,55,8.60
2007,05,29,01,56,8.50
2007,05,29,01,57,8.50
2007,05,29,01,58,8.50
2007,05,29,01,59,8.50
2007,05,29,02,00,8.60
2007,05,29,02,01,8.60
2007,05,29,02,02,8.70
2007,05,29,02,03,8.70
2007,05,29,02,04,8.70
2007,05,29,02,05,8.70
2007,05,29,02,06,8.70
2007,05,29,02,07,8.70
2007,05,29,02,08,8.70
2007,05,29,02,09,8.60
2007,05,29,02,10,8.60
2007,05,29,02,11,8.60
2007,05,29,02,12,8.50
2007,05,29,02,13,8.50
2007,05,29,02,14,8.40
2007,05,29,02,15,8.40
2007,05,29,02,16,8.40
2007,05,29,02,17,8.50
2007,05,29,02,18,8.50
2007,05,29,02,19,8.50
2007,05,29,02,20,8.40
2007,05,29,02,21,8.40
2007,05,29,02,22,8.40
2007,05,29,02,23,8.30
2007,05,29,02,24,8.40
2007,05,29,02,25,8.40
2007,05,29,02,26,8.30
2007,05,29,02,27,8.30
2007,05,29,02,28,8.30
2007,05,29,02,29,8.30
2007,05,29,02,30,8.30
2007,05,29,02,31,8.30
2007,05,29,02,32,8.20
2007,05,29,02,33,8.20
2007,05,29,02,34,8.20
2007,05,29,02,35,8.20
2007,05,29,02,36,8.20
2007,05,29,02,37,8.10
2007,05,29,02,38,8.10
2007,05,29,02,39,8.10
2007,05,29,02,40,8.10
2007,05,29,02,41,8.10
2007,05,29,02,42,8.10
2007,05,29,02,43,8.10
2007,05,29,02,44,8.10
2007,05,29,02,45,8.10
2007,05,29,02,46,8.10
2007,05,29,02,47,8.10
2007,05,29,02,48,8.20
2007,05,29,02,49,8.20
2007,05,29,02,50,8.20
2007,05,29,02,51,8.20
2007,05,29,02,52,8.20
2007,05,29,02,53,8.20
2007,05,29,02,54,8.20
2007,05,29,02,55,8.20
2007,05,29,02,56,8.20
2007,05,29,02,57,8.20
2007,05,29,02,58,8.20
2007,05,29,02,59,8.20
2007,05,29,03,00,8.20
2007,05,29,03,01,8.20
2007,05,29,03,02,8.20
2007,05,29,03,03,8.20
2007,05,29,03,04,8.20
2007,05,29,03,05,8.10
2007,05,29,03,06,8.10
2007,05,29,03,07,8.10
2007,05,29,03,08,8.10
2007,05,29,03,09,8.00
2007,05,29,03,10,8.00
2007,05,29,03,11,8.00
2007,05,29,03,12,8.00
2007,05,29,03,13,8.00
2007,05,29,03,14,8.00
2007,05,29,03,15,8.00
2007,05,29,03,16,8.00
2007,05,29,03,17,7.90
2007,05,29,03,18,7.90
2007,05,29,03,19,7.90
2007,05,29,03,20,7.80
2007,05,29,03,21,7.80
2007,05,29,03,22,7.80
2007,05,29,03,23,7.80
2007,05,29,03,24,7.80
2007,05,29,03,25,7.80
2007,05,29,03,26,7.80
2007,05,29,03,27,7.80
2007,05,29,03,28,7.80
2007,05,29,03,29,7.80
2007,05,29,03,30,7.90
2007,05,29,03,31,7.90
2007,05,29,03,32,7.90
2007,05,29,03,33,8.00
2007,05,29,03,34,8.00
2007,05,29,03,35,8.00
2007,05,29,03,36,8.10
2007,05,29,03,37,8.10
2007,05,29,03,38,8.10
2007,05,29,03,39,8.10
2007,05,29,03,40,8.00
2007,05,29,03,41,8.00
2007,05,29,03,42,8.00
2007,05,29,03,43,7.90
2007,05,29,03,44,7.90
2007,05,29,03,45,7.90
2007,05,29,03,46,7.80
2007,05,29,03,47,7.80
2007,05,29,03,48,7.80
2007,05,29,03,49,7.70
2007,05,29,03,50,7.70
2007,05,29,03,51,7.60
2007,05,29,03,52,7.60
2007,05,29,03,53,7.60
2007,05,29,03,54,7.50
2007,05,29,03,55,7.50
2007,05,29,03,56,7.50
2007,05,29,03,57,7.40
2007,05,29,03,58,7.40
2007,05,29,03,59,7.40
2007,05,29,04,00,7.40
2007,05,29,04,01,7.50
2007,05,29,04,02,7.50
2007,05,29,04,03,7.50
2007,05,29,04,04,7.50
2007,05,29,04,05,7.50
2007,05,29,04,06,7.50
2007,05,29,04,07,7.50
2007,05,29,04,08,7.60
2007,05,29,04,09,7.60
2007,05,29,04,10,7.60
2007,05,29,04,11,7.70
2007,05,29,04,12,7.70
2007,05,29,04,13,7.80
2007,05,29,04,14,7.80
2007,05,29,04,15,7.70
2007,05,29,04,16,7.70
2007,05,29,04,17,7.70
2007,05,29,04,18,7.70
2007,05,29,04,19,7.60
2007,05,29,04,20,7.60
2007,05,29,04,21,7.60
2007,05,29,04,22,7.50
2007,05,29,04,23,7.50
2007,05,29,04,24,7.50
2007,05,29,04,25,7.60
2007,05,29,04,26,7.60
2007,05,29,04,27,7.70
2007,05,29,04,28,7.70
2007,05,29,04,29,7.70
2007,05,29,04,30,7.80
2007,05,29,04,31,7.80
2007,05,29,04,32,7.80
2007,05,29,04,33,7.90
2007,05,29,04,34,8.00
2007,05,29,04,35,8.00
2007,05,29,04,36,8.10
2007,05,29,04,37,8.10
2007,05,29,04,38,8.20
2007,05,29,04,39,8.20
2007,05,29,04,40,8.20
2007,05,29,04,41,8.20
2007,05,29,04,42,8.20
2007,05,29,04,43,8.20
2007,05,29,04,44,8.20
2007,05,29,04,45,8.20
2007,05,29,04,46,8.20
2007,05,29,04,47,8.10
2007,05,29,04,48,8.10
2007,05,29,04,49,8.10
2007,05,29,04,50,8.00
2007,05,29,04,51,8.10
2007,05,29,04,52,8.10
2007,05,29,04,53,8.10
2007,05,29,04,54,8.10
2007,05,29,04,55,8.10
2007,05,29,04,56,8.20
2007,05,29,04,57,8.20
2007,05,29,04,58,8.20
2007,05,29,04,59,8.10
2007,05,29,05,00,8.10
2007,05,29,05,01,8.00
2007,05,29,05,02,8.00
2007,05,29,05,03,7.90
2007,05,29,05,04,7.90
2007,05,29,05,05,7.80
2007,05,29,05,06,7.80
2007,05,29,05,07,7.80
2007,05,29,05,08,7.80
2007,05,29,05,09,7.80
2007,05,29,05,10,7.80
2007,05,29,05,11,7.80
2007,05,29,05,12,7.80
2007,05,29,05,13,7.80
2007,05,29,05,14,7.80
2007,05,29,05,15,7.80
2007,05,29,05,16,7.80
2007,05,29,05,17,7.80
2007,05,29,05,18,7.80
2007,05,29,05,19,7.80
2007,05,29,05,20,7.80
2007,05,29,05,21,7.90
2007,05,29,05,22,7.90
2007,05,29,05,23,8.00
2007,05,29,05,24,8.00
2007,05,29,05,25,8.00
2007,05,29,05,26,8.00
2007,05,29,05,27,7.90
2007,05,29,05,28,7.90
2007,05,29,05,29,7.90
2007,05,29,05,30,7.90
2007,05,29,05,31,7.90
2007,05,29,05,32,7.90
2007,05,29,05,33,8.00
2007,05,29,05,34,8.00
2007,05,29,05,35,8.00
2007,05,29,05,36,8.00
2007,05,29,05,37,8.00
2007,05,29,05,38,8.00
2007,05,29,05,39,8.00
2007,05,29,05,40,8.00
2007,05,29,05,41,8.00
2007,05,29,05,42,8.00
2007,05,29,05,43,8.00
2007,05,29,05,44,8.00
2007,05,29,05,45,7.90
2007,05,29,05,46,7.90
2007,05,29,05,47,7.90
2007,05,29,05,48,7.90
2007,05,29,05,49,7.90
2007,05,29,05,50,7.90
2007,05,29,05,51,8.00
2007,05,29,05,52,8.00
2007,05,29,05,53,8.10
2007,05,29,05,54,8.20
2007,05,29,05,55,8.20
2007,05,29,05,56,8.20
2007,05,29,05,57,8.30
2007,05,29,05,58,8.30
2007,05,29,05,59,8.30
2007,05,29,06,00,8.30
2007,05,29,06,01,8.30
2007,05,29,06,02,8.20
2007,05,29,06,03,8.20
2007,05,29,06,04,8.20
2007,05,29,06,05,8.30
2007,05,29,06,06,8.40
2007,05,29,06,07,8.40
2007,05,29,06,08,8.40
2007,05,29,06,09,8.40
2007,05,29,06,10,8.40
2007,05,29,06,11,8.40
2007,05,29,06,12,8.40
2007,05,29,06,13,8.40
2007,05,29,06,14,8.40
2007,05,29,06,15,8.40
2007,05,29,06,16,8.40
2007,05,29,06,17,8.40
2007,05,29,06,18,8.40
2007,05,29,06,19,8.50
2007,05,29,06,20,8.50
2007,05,29,06,21,8.60
2007,05,29,06,22,8.70
2007,05,29,06,23,8.70
2007,05,29,06,24,8.70
2007,05,29,06,25,8.70
2007,05,29,06,26,8.80
2007,05,29,06,27,8.80
2007,05,29,06,28,8.80
2007,05,29,06,29,8.80
2007,05,29,06,30,8.80
2007,05,29,06,31,8.90
2007,05,29,06,32,8.90
2007,05,29,06,33,8.90
2007,05,29,06,34,8.90
2007,05,29,06,35,8.90
2007,05,29,06,36,8.90
2007,05,29,06,37,8.90
2007,05,29,06,38,8.90
2007,05,29,06,39,8.90
2007,05,29,06,40,8.90
2007,05,29,06,41,8.90
2007,05,29,06,42,8.90
2007,05,29,06,43,8.90
2007,05,29,06,44,8.90
2007,05,29,06,45,9.00
2007,05,29,06,46,9.00
2007,05,29,06,47,9.00
2007,05,29,06,48,9.10
2007,05,29,06,49,9.20
2007,05,29,06,50,9.30
2007,05,29,06,51,9.40
2007,05,29,06,52,9.40
2007,05,29,06,53,9.50
2007,05,29,06,54,9.50
2007,05,29,06,55,9.50
2007,05,29,06,56,9.60
2007,05,29,06,57,9.60
2007,05,29,06,58,9.60
2007,05,29,06,59,9.60
2007,05,29,07,00,9.60
2007,05,29,07,01,9.60
2007,05,29,07,02,9.70
2007,05,29,07,03,9.70
2007,05,29,07,04,9.70
2007,05,29,07,05,9.70
2007,05,29,07,06,9.80
2007,05,29,07,07,9.80
2007,05,29,07,08,9.90
2007,05,29,07,09,9.90
2007,05,29,07,10,9.90
2007,05,29,07,11,10.00
2007,05,29,07,12,10.10
2007,05,29,07,13,10.10
2007,05,29,07,14,10.20
2007,05,29,07,15,10.30
2007,05,29,07,16,10.40
2007,05,29,07,17,10.40
2007,05,29,07,18,10.40
2007,05,29,07,19,10.60
2007,05,29,07,20,10.60
2007,05,29,07,21,10.70
2007,05,29,07,22,10.70
2007,05,29,07,23,10.80
2007,05,29,07,24,10.90
2007,05,29,07,25,11.00
2007,05,29,07,26,11.10
2007,05,29,07,27,11.10
2007,05,29,07,28,11.20
2007,05,29,07,29,11.20
2007,05,29,07,30,11.40
2007,05,29,07,31,11.50
2007,05,29,07,32,11.60
2007,05,29,07,33,11.70
2007,05,29,07,34,11.80
2007,05,29,07,35,11.90
2007,05,29,07,36,12.00
2007,05,29,07,37,12.10
2007,05,29,07,38,12.20
2007,05,29,07,39,12.30
2007,05,29,07,40,12.40
2007,05,29,07,41,12.40
2007,05,29,07,42,12.50
2007,05,29,07,43,12.50
2007,05,29,07,44,12.60
2007,05,29,07,45,12.70
2007,05,29,07,46,12.70
2007,05,29,07,47,12.80
2007,05,29,07,48,12.80
2007,05,29,07,49,12.90
2007,05,29,07,50,13.00
2007,05,29,07,51,13.10
2007,05,29,07,52,13.20
2007,05,29,07,53,13.30
2007,05,29,07,54,13.30
2007,05,29,07,55,13.40
2007,05,29,07,56,13.40
2007,05,29,07,57,13.40
2007,05,29,07,58,13.50
2007,05,29,07,59,13.60
2007,05,29,08,00,13.60
2007,05,29,08,01,13.70
2007,05,29,08,02,13.70
2007,05,29,08,03,13.70
2007,05,29,08,04,13.80
2007,05,29,08,05,13.80
2007,05,29,08,06,13.80
2007,05,29,08,07,13.80
2007,05,29,08,08,13.80
2007,05,29,08,09,13.90
2007,05,29,08,10,13.90
2007,05,29,08,11,14.00
2007,05,29,08,12,14.00
2007,05,29,08,13,14.00
2007,05,29,08,14,14.10
2007,05,29,08,15,14.10
2007,05,29,08,16,14.20
2007,05,29,08,17,14.20
2007,05,29,08,18,14.20
2007,05,29,08,19,14.20
2007,05,29,08,20,14.30
2007,05,29,08,21,14.30
2007,05,29,08,22,14.30
2007,05,29,08,23,14.20
2007,05,29,08,24,14.20
2007,05,29,08,25,14.20
2007,05,29,08,26,14.20
2007,05,29,08,27,14.20
2007,05,29,08,28,14.10
2007,05,29,08,29,14.10
2007,05,29,08,30,14.20
2007,05,29,08,31,14.20
2007,05,29,08,32,14.20
2007,05,29,08,33,14.20
2007,05,29,08,34,14.10
2007,05,29,08,35,14.10
2007,05,29,08,36,14.00
2007,05,29,08,37,14.00
2007,05,29,08,38,14.00
2007,05,29,08,39,14.10
2007,05,29,08,40,14.10
2007,05,29,08,41,14.10
2007,05,29,08,42,14.20
2007,05,29,08,43,14.20
2007,05,29,08,44,14.20
2007,05,29,08,45,14.20
2007,05,29,08,46,14.20
2007,05,29,08,47,14.20
2007,05,29,08,48,14.20
2007,05,29,08,49,14.10
2007,05,29,08,50,14.00
2007,05,29,08,51,14.00
2007,05,29,08,52,14.10
2007,05,29,08,53,14.10
2007,05,29,08,54,14.20
2007,05,29,08,55,14.20
2007,05,29,08,56,14.30
2007,05,29,08,57,14.30
2007,05,29,08,58,14.30
2007,05,29,08,59,14.40
2007,05,29,09,00,14.50
2007,05,29,09,01,14.50
2007,05,29,09,02,14.60
2007,05,29,09,03,14.60
2007,05,29,09,04,14.60
2007,05,29,09,05,14.60
2007,05,29,09,06,14.60
2007,05,29,09,07,14.70
2007,05,29,09,08,14.70
2007,05,29,09,09,14.80
2007,05,29,09,10,14.80
2007,05,29,09,11,14.90
2007,05,29,09,12,15.00
2007,05,29,09,13,15.00
2007,05,29,09,14,15.10
2007,05,29,09,15,15.10
2007,05,29,09,16,15.20
2007,05,29,09,17,15.20
2007,05,29,09,18,15.30
2007,05,29,09,19,15.30
2007,05,29,09,20,15.30
2007,05,29,09,21,15.30
2007,05,29,09,22,15.30
2007,05,29,09,23,15.10
2007,05,29,09,24,15.10
2007,05,29,09,25,15.00
2007,05,29,09,26,14.90
2007,05,29,09,27,14.80
2007,05,29,09,28,14.70
2007,05,29,09,29,14.70
2007,05,29,09,30,14.70
2007,05,29,09,31,14.70
2007,05,29,09,32,14.70
2007,05,29,09,33,14.60
2007,05,29,09,34,14.60
2007,05,29,09,35,14.70
2007,05,29,09,36,14.70
2007,05,29,09,37,14.70
2007,05,29,09,38,14.70
2007,05,29,09,39,14.70
2007,05,29,09,40,14.70
2007,05,29,09,41,14.70
2007,05,29,09,42,14.70
2007,05,29,09,43,14.80
2007,05,29,09,44,14.80
2007,05,29,09,45,14.80
2007,05,29,09,46,14.80
2007,05,29,09,47,14.80
2007,05,29,09,48,14.80
2007,05,29,09,49,14.80
2007,05,29,09,50,14.90
2007,05,29,09,51,14.90
2007,05,29,09,52,15.00
2007,05,29,09,53,15.10
2007,05,29,09,54,15.20
2007,05,29,09,55,15.30
2007,05,29,09,56,15.20
2007,05,29,09,57,15.20
2007,05,29,09,58,15.10
2007,05,29,09,59,15.10
2007,05,29,10,00,15.10
2007,05,29,10,01,15.20
2007,05,29,10,02,15.20
2007,05,29,10,03,15.30
2007,05,29,10,04,15.30
2007,05,29,10,05,15.30
2007,05,29,10,06,15.30
2007,05,29,10,07,15.30
2007,05,29,10,08,15.30
2007,05,29,10,09,15.30
2007,05,29,10,10,15.30
2007,05,29,10,11,15.30
2007,05,29,10,12,15.30
2007,05,29,10,13,15.30
2007,05,29,10,14,15.40
2007,05,29,10,15,15.50
2007,05,29,10,16,15.50
2007,05,29,10,17,15.50
2007,05,29,10,18,15.50
2007,05,29,10,19,15.50
2007,05,29,10,20,15.50
2007,05,29,10,21,15.50
2007,05,29,10,22,15.60
2007,05,29,10,23,15.60
2007,05,29,10,24,15.50
2007,05,29,10,25,15.60
2007,05,29,10,26,15.60
2007,05,29,10,27,15.60
2007,05,29,10,28,15.60
2007,05,29,10,29,15.70
2007,05,29,10,30,15.70
2007,05,29,10,31,15.70
2007,05,29,10,32,15.70
2007,05,29,10,33,15.80
2007,05,29,10,34,15.70
2007,05,29,10,35,15.70
2007,05,29,10,36,15.70
2007,05,29,10,37,15.70
2007,05,29,10,38,15.80
2007,05,29,10,39,15.80
2007,05,29,10,40,15.80
2007,05,29,10,41,15.80
2007,05,29,10,42,15.80
2007,05,29,10,43,15.80
2007,05,29,10,44,15.80
2007,05,29,10,45,15.80
2007,05,29,10,46,15.80
2007,05,29,10,47,15.90
2007,05,29,10,48,15.80
2007,05,29,10,49,15.90
2007,05,29,10,50,16.00
2007,05,29,10,51,16.10
2007,05,29,10,52,16.30
2007,05,29,10,53,16.30
2007,05,29,10,54,16.30
2007,05,29,10,55,16.40
2007,05,29,10,56,16.40
2007,05,29,10,57,16.40
2007,05,29,10,58,16.40
2007,05,29,10,59,16.40
2007,05,29,11,00,16.50
2007,05,29,11,01,16.60
2007,05,29,11,02,16.70
2007,05,29,11,03,16.70
2007,05,29,11,04,16.80
2007,05,29,11,05,16.90
2007,05,29,11,06,16.80
2007,05,29,11,07,16.80
2007,05,29,11,08,16.80
2007,05,29,11,09,16.80
2007,05,29,11,10,16.90
2007,05,29,11,11,16.90
2007,05,29,11,12,17.00
2007,05,29,11,13,17.00
2007,05,29,11,14,17.10
2007,05,29,11,15,17.20
2007,05,29,11,16,17.30
2007,05,29,11,17,17.40
2007,05,29,11,18,17.40
2007,05,29,11,19,17.40
2007,05,29,11,20,17.30
2007,05,29,11,21,17.20
2007,05,29,11,22,17.10
2007,05,29,11,23,17.10
2007,05,29,11,24,17.20
2007,05,29,11,25,17.20
2007,05,29,11,26,17.30
2007,05,29,11,27,17.50
2007,05,29,11,28,17.60
2007,05,29,11,29,17.70
2007,05,29,11,30,17.80
2007,05,29,11,31,17.80
2007,05,29,11,32,17.80
2007,05,29,11,33,17.70
2007,05,29,11,34,17.50
2007,05,29,11,35,17.40
2007,05,29,11,36,17.40
2007,05,29,11,37,17.40
2007,05,29,11,38,17.50
2007,05,29,11,39,17.50
2007,05,29,11,40,17.50
2007,05,29,11,41,17.50
2007,05,29,11,42,17.50
2007,05,29,11,43,17.50
2007,05,29,11,44,17.40
2007,05,29,11,45,17.40
2007,05,29,11,46,17.50
2007,05,29,11,47,17.50
2007,05,29,11,48,17.50
2007,05,29,11,49,17.50
2007,05,29,11,50,17.50
2007,05,29,11,51,17.40
2007,05,29,11,52,17.30
2007,05,29,11,53,17.30
2007,05,29,11,54,17.30
2007,05,29,11,55,17.30
2007,05,29,11,56,17.30
2007,05,29,11,57,17.30
2007,05,29,11,58,17.30
2007,05,29,11,59,17.30
2007,05,29,12,00,17.30
2007,05,29,12,01,17.30
2007,05,29,12,02,17.40
2007,05,29,12,03,17.40
2007,05,29,12,04,17.50
2007,05,29,12,05,17.50
2007,05,29,12,06,17.70
2007,05,29,12,07,17.80
2007,05,29,12,08,17.80
2007,05,29,12,09,17.90
2007,05,29,12,10,17.80
2007,05,29,12,11,17.80
2007,05,29,12,12,17.80
2007,05,29,12,13,17.80
2007,05,29,12,14,17.90
2007,05,29,12,15,17.90
2007,05,29,12,16,17.90
2007,05,29,12,17,17.90
2007,05,29,12,18,17.90
2007,05,29,12,19,18.00
2007,05,29,12,20,18.10
2007,05,29,12,21,18.10
2007,05,29,12,22,17.90
2007,05,29,12,23,17.90
2007,05,29,12,24,17.90
2007,05,29,12,25,17.90
2007,05,29,12,26,17.90
2007,05,29,12,27,18.10
2007,05,29,12,28,18.10
2007,05,29,12,29,18.20
2007,05,29,12,30,18.30
2007,05,29,12,31,18.30
2007,05,29,12,32,18.30
2007,05,29,12,33,18.40
2007,05,29,12,34,18.50
2007,05,29,12,35,18.50
2007,05,29,12,36,18.50
2007,05,29,12,37,18.50
2007,05,29,12,38,18.60
2007,05,29,12,39,18.70
2007,05,29,12,40,18.80
2007,05,29,12,41,18.80
2007,05,29,12,42,18.70
2007,05,29,12,43,18.70
2007,05,29,12,44,18.50
2007,05,29,12,45,18.40
2007,05,29,12,46,18.50
2007,05,29,12,47,18.50
2007,05,29,12,48,18.60
2007,05,29,12,49,18.60
2007,05,29,12,50,18.60
2007,05,29,12,51,18.60
2007,05,29,12,52,18.60
2007,05,29,12,53,18.60
2007,05,29,12,54,18.60
2007,05,29,12,55,18.60
2007,05,29,12,56,18.50
2007,05,29,12,57,18.40
2007,05,29,12,58,18.30
2007,05,29,12,59,18.50
2007,05,29,13,00,18.60
2007,05,29,13,01,18.60
2007,05,29,13,02,18.70
2007,05,29,13,03,18.60
2007,05,29,13,04,18.70
2007,05,29,13,05,18.80
2007,05,29,13,06,18.90
2007,05,29,13,07,19.00
2007,05,29,13,08,19.10
2007,05,29,13,09,19.10
2007,05,29,13,10,19.10
2007,05,29,13,11,19.10
2007,05,29,13,12,19.20
2007,05,29,13,13,19.20
2007,05,29,13,14,19.20
2007,05,29,13,15,19.20
2007,05,29,13,16,19.20
2007,05,29,13,17,19.30
2007,05,29,13,18,19.40
2007,05,29,13,19,19.40
2007,05,29,13,20,19.60
2007,05,29,13,21,19.60
2007,05,29,13,22,19.50
2007,05,29,13,23,19.50
2007,05,29,13,24,19.50
2007,05,29,13,25,19.70
2007,05,29,13,26,19.70
2007,05,29,13,27,19.70
2007,05,29,13,28,19.70
2007,05,29,13,29,19.80
2007,05,29,13,30,19.90
2007,05,29,13,31,19.90
2007,05,29,13,32,19.90
2007,05,29,13,33,19.90
2007,05,29,13,34,19.90
2007,05,29,13,35,19.90
2007,05,29,13,36,19.80
2007,05,29,13,37,19.90
2007,05,29,13,38,20.00
2007,05,29,13,39,20.10
2007,05,29,13,40,20.20
2007,05,29,13,41,20.30
2007,05,29,13,42,20.30
2007,05,29,13,43,20.30
2007,05,29,13,44,20.30
2007,05,29,13,45,20.30
2007,05,29,13,46,20.20
2007,05,29,13,47,20.30
2007,05,29,13,48,20.20
2007,05,29,13,49,20.30
2007,05,29,13,50,20.40
2007,05,29,13,51,20.50
2007,05,29,13,52,20.40
2007,05,29,13,53,20.30
2007,05,29,13,54,20.10
2007,05,29,13,55,20.10
2007,05,29,13,56,20.20
2007,05,29,13,57,20.20
2007,05,29,13,58,20.40
2007,05,29,13,59,20.50
2007,05,29,14,00,20.60
2007,05,29,14,01,20.70
2007,05,29,14,02,20.70
2007,05,29,14,03,20.80
2007,05,29,14,04,20.70
2007,05,29,14,05,20.70
2007,05,29,14,06,20.60
2007,05,29,14,07,20.70
2007,05,29,14,08,20.80
2007,05,29,14,09,20.70
2007,05,29,14,10,20.70
2007,05,29,14,11,20.60
2007,05,29,14,12,20.50
2007,05,29,14,13,20.50
2007,05,29,14,14,20.60
2007,05,29,14,15,20.70
2007,05,29,14,16,20.70
2007,05,29,14,17,20.70
2007,05,29,14,18,20.80
2007,05,29,14,19,20.80
2007,05,29,14,20,20.80
2007,05,29,14,21,20.60
2007,05,29,14,22,20.60
2007,05,29,14,23,20.60
2007,05,29,14,24,20.60
2007,05,29,14,25,20.70
2007,05,29,14,26,20.80
2007,05,29,14,27,20.70
2007,05,29,14,28,20.70
2007,05,29,14,29,20.70
2007,05,29,14,30,20.80
2007,05,29,14,31,20.80
2007,05,29,14,32,20.80
2007,05,29,14,33,20.80
2007,05,29,14,34,20.90
2007,05,29,14,35,21.00
2007,05,29,14,36,21.10
2007,05,29,14,37,21.20
2007,05,29,14,38,21.20
2007,05,29,14,39,21.10
2007,05,29,14,40,21.10
2007,05,29,14,41,21.10
2007,05,29,14,42,21.10
2007,05,29,14,43,21.00
2007,05,29,14,44,20.90
2007,05,29,14,45,21.00
2007,05,29,14,46,21.00
2007,05,29,14,47,21.10
2007,05,29,14,48,21.20
2007,05,29,14,49,21.30
2007,05,29,14,50,21.60
2007,05,29,14,51,21.70
2007,05,29,14,52,21.80
2007,05,29,14,53,21.70
2007,05,29,14,54,21.80
2007,05,29,14,55,21.80
2007,05,29,14,56,21.90
2007,05,29,14,57,21.90
2007,05,29,14,58,21.90
2007,05,29,14,59,21.90
2007,05,29,15,00,21.90
2007,05,29,15,01,21.90
2007,05,29,15,02,21.90
2007,05,29,15,03,22.00
2007,05,29,15,04,22.00
2007,05,29,15,05,21.90
2007,05,29,15,06,21.70
2007,05,29,15,07,21.60
2007,05,29,15,08,21.30
2007,05,29,15,09,21.10
2007,05,29,15,10,20.90
2007,05,29,15,11,20.70
2007,05,29,15,12,20.70
2007,05,29,15,13,20.70
2007,05,29,15,14,20.70
2007,05,29,15,15,21.00
2007,05,29,15,16,20.90
2007,05,29,15,17,20.70
2007,05,29,15,18,20.40
2007,05,29,15,19,20.10
2007,05,29,15,20,19.80
2007,05,29,15,21,19.70
2007,05,29,15,22,19.60
2007,05,29,15,23,19.60
2007,05,29,15,24,19.70
2007,05,29,15,25,19.70
2007,05,29,15,26,19.60
2007,05,29,15,27,19.50
2007,05,29,15,28,19.10
2007,05,29,15,29,18.90
2007,05,29,15,30,18.80
2007,05,29,15,31,18.70
2007,05,29,15,32,18.70
2007,05,29,15,33,18.60
2007,05,29,15,34,18.30
2007,05,29,15,35,18.10
2007,05,29,15,36,18.00
2007,05,29,15,37,17.90
2007,05,29,15,38,17.90
2007,05,29,15,39,17.90
2007,05,29,15,40,18.10
2007,05,29,15,41,18.20
2007,05,29,15,42,18.20
2007,05,29,15,43,18.00
2007,05,29,15,44,17.90
2007,05,29,15,45,17.90
2007,05,29,15,46,17.70
2007,05,29,15,47,17.50
2007,05,29,15,48,17.40
2007,05,29,15,49,17.20
2007,05,29,15,50,17.00
2007,05,29,15,51,17.00
2007,05,29,15,52,16.90
2007,05,29,15,53,16.70
2007,05,29,15,54,16.70
2007,05,29,15,55,16.70
2007,05,29,15,56,16.80
2007,05,29,15,57,16.80
2007,05,29,15,58,16.70
2007,05,29,15,59,16.70
2007,05,29,16,00,16.40
2007,05,29,16,01,16.30
2007,05,29,16,02,16.30
2007,05,29,16,03,16.20
2007,05,29,16,04,16.30
2007,05,29,16,05,16.30
2007,05,29,16,06,16.20
2007,05,29,16,07,16.30
2007,05,29,16,08,16.30
2007,05,29,16,09,16.30
2007,05,29,16,10,16.30
2007,05,29,16,11,16.30
2007,05,29,16,12,16.50
2007,05,29,16,13,16.80
2007,05,29,16,14,16.90
2007,05,29,16,15,17.00
2007,05,29,16,16,17.00
2007,05,29,16,17,17.00
2007,05,29,16,18,17.00
2007,05,29,16,19,17.00
2007,05,29,16,20,17.00
2007,05,29,16,21,17.00
2007,05,29,16,22,17.10
2007,05,29,16,23,17.10
2007,05,29,16,24,17.10
2007,05,29,16,25,17.10
2007,05,29,16,26,17.10
2007,05,29,16,27,17.00
2007,05,29,16,28,16.90
2007,05,29,16,29,16.80
2007,05,29,16,30,16.80
2007,05,29,16,31,16.90
2007,05,29,16,32,17.00
2007,05,29,16,33,17.10
2007,05,29,16,34,17.30
2007,05,29,16,35,17.30
2007,05,29,16,36,17.30
2007,05,29,16,37,17.30
2007,05,29,16,38,17.30
2007,05,29,16,39,17.30
2007,05,29,16,40,17.30
2007,05,29,16,41,17.30
2007,05,29,16,42,17.40
2007,05,29,16,43,17.40
2007,05,29,16,44,17.40
2007,05,29,16,45,17.50
2007,05,29,16,46,17.50
2007,05,29,16,47,17.50
2007,05,29,16,48,17.60
2007,05,29,16,49,17.60
2007,05,29,16,50,17.60
2007,05,29,16,51,17.50
2007,05,29,16,52,17.50
2007,05,29,16,53,17.50
2007,05,29,16,54,17.60
2007,05,29,16,55,17.70
2007,05,29,16,56,17.80
2007,05,29,16,57,17.90
2007,05,29,16,58,18.10
2007,05,29,16,59,18.20
2007,05,29,17,00,18.20
2007,05,29,17,01,18.40
2007,05,29,17,02,18.50
2007,05,29,17,03,18.50
2007,05,29,17,04,18.30
2007,05,29,17,05,18.20
2007,05,29,17,06,18.00
2007,05,29,17,07,17.90
2007,05,29,17,08,17.90
2007,05,29,17,09,17.90
2007,05,29,17,10,17.90
2007,05,29,17,11,17.90
2007,05,29,17,12,17.80
2007,05,29,17,13,17.80
2007,05,29,17,14,17.80
2007,05,29,17,15,17.70
2007,05,29,17,16,17.80
2007,05,29,17,17,17.90
2007,05,29,17,18,18.00
2007,05,29,17,19,18.10
2007,05,29,17,20,18.20
2007,05,29,17,21,18.20
2007,05,29,17,22,18.30
2007,05,29,17,23,18.50
2007,05,29,17,24,18.60
2007,05,29,17,25,18.70
2007,05,29,17,26,18.90
2007,05,29,17,27,19.00
2007,05,29,17,28,19.10
2007,05,29,17,29,19.20
2007,05,29,17,30,19.30
2007,05,29,17,31,19.40
2007,05,29,17,32,19.50
2007,05,29,17,33,19.60
2007,05,29,17,34,19.70
2007,05,29,17,35,19.80
2007,05,29,17,36,19.80
2007,05,29,17,37,19.90
2007,05,29,17,38,19.90